Location: NJAA Observatory
(40.6819°N, 74.8979°W)
Time: 12:41:58
(UTC-04:00)

Courier 1B - All Passes

Search period start: 30 October 2014 00:00
Search period end: 08 November 2014 23:00
Orbit: 963 x 1209 km, 28.3° (Epoch: 29 October)

Date Brightness Start Highest point End Pass type
(mag) Time Alt. Az. Time Alt. Az. Time Alt. Az.
30 Oct - 07:58:01 10° SSW 08:03:10 21° SSE 08:08:31 10° ESE daylight
30 Oct - 09:50:10 10° SW 09:56:28 31° S 10:03:02 10° ESE daylight
30 Oct - 11:43:43 10° WSW 11:49:57 28° S 11:56:21 10° SE daylight
30 Oct - 13:39:01 10° WSW 13:43:15 16° SSW 13:47:32 10° S daylight
31 Oct - 07:05:18 10° SSW 07:09:39 17° SSE 07:14:08 10° ESE daylight
31 Oct - 08:56:47 10° SW 09:02:49 29° S 09:09:09 10° ESE daylight
31 Oct - 10:49:59 10° WSW 10:56:16 30° S 11:02:47 10° SE daylight
31 Oct - 12:44:34 10° WSW 12:49:38 19° SSW 12:54:47 10° SSE daylight
01 Nov - 06:13:05 10° S 06:16:10 13° SSE 06:19:20 10° SE visible
01 Nov - 08:03:32 10° SW 08:09:13 27° SSE 08:15:10 10° ESE daylight
01 Nov - 09:56:22 10° WSW 10:02:35 31° S 10:09:06 10° SE daylight
01 Nov - 11:50:27 10° WSW 11:56:00 22° SSW 12:01:42 10° SSE daylight
02 Nov - 06:10:27 10° SSW 06:15:39 23° SSE 06:21:06 10° ESE daylight
02 Nov - 08:02:52 10° WSW 08:08:56 31° S 08:15:20 10° ESE daylight
02 Nov - 09:56:33 10° WSW 10:02:21 25° SSW 10:08:22 10° SE daylight
02 Nov - 11:52:43 10° SW 11:55:35 12° SSW 11:58:29 10° S daylight
03 Nov - 05:17:34 10° SSW 05:22:09 19° SSE 05:26:54 10° ESE visible
03 Nov - 07:09:28 10° SW 07:15:19 30° S 07:21:30 10° ESE daylight
03 Nov - 09:02:49 10° WSW 09:08:43 28° S 09:14:53 10° SE daylight
03 Nov - 10:57:50 10° WSW 11:02:00 16° SSW 11:06:15 10° S daylight
04 Nov - 04:25:00 10° S 04:28:41 15° SSE 04:32:28 10° ESE visible
04 Nov - 06:16:10 10° SW 06:21:45 27° S 06:27:37 10° ESE daylight
04 Nov - 08:09:11 10° WSW 08:15:05 29° S 08:21:16 10° SE daylight
04 Nov - 10:03:34 10° WSW 10:08:24 19° SSW 10:13:24 10° SSE daylight
05 Nov - 03:33:09 10° S 03:35:16 12° SSE 03:37:24 10° SE visible
05 Nov - 05:22:59 10° SW 05:28:13 25° SSE 05:33:40 10° ESE visible
05 Nov - 07:15:40 10° WSW 07:21:29 30° S 07:27:35 10° SE daylight
05 Nov - 09:09:35 10° WSW 09:14:48 22° SSW 09:20:14 10° SSE daylight
06 Nov - 04:29:58 10° SSW 04:34:43 21° SSE 04:39:38 10° ESE visible
06 Nov - 06:22:14 10° SW 06:27:54 29° S 06:33:51 10° ESE daylight
06 Nov - 08:15:47 10° WSW 08:21:13 24° SSW 08:26:53 10° SE daylight
06 Nov - 10:11:44 10° SW 10:14:24 12° SSW 10:17:07 10° S daylight
07 Nov - 03:37:10 10° SSW 03:41:16 18° SSE 03:45:28 10° ESE visible
07 Nov - 05:28:53 10° SW 05:34:21 28° S 05:40:04 10° ESE visible
07 Nov - 07:22:07 10° WSW 07:27:38 26° S 07:33:25 10° SE daylight
07 Nov - 09:17:00 10° SW 09:20:51 15° SSW 09:24:49 10° S daylight
08 Nov - 02:44:42 10° S 02:47:51 14° SSE 02:51:01 10° SE visible
08 Nov - 04:35:37 10° SW 04:40:51 26° S 04:46:15 10° ESE visible
08 Nov - 06:28:33 10° WSW 06:34:04 28° S 06:39:51 10° SE daylight
08 Nov - 08:22:49 10° WSW 08:27:18 18° SSW 08:31:57 10° SSE daylight
